Regional Weather Roundup
Issued by NWS

Home | Current Version | Previous Version | Graphics & Text | Print | Product List | Glossary On
Versions: 1 2 3 4 5 6 7 8 9 10 11 12 13 14 15 16 17 18 19 20 21 22 23 24 25 26 27 28 29 30 31 32 33 34 35 36 37 38 39 40 41 42 43 44 45 46 47 48 49 50
000
ASUS45 KBOU 010607
RWRCO

WEATHER ROUNDUP FOR COLORADO
NATIONAL WEATHER SERVICE DENVER/BOULDER CO
1200 AM MDT MON JUN 01 2015

NOTE: "FAIR" INDICATES FEW OR NO CLOUDS BELOW 12000 FEET WITH NO
SIGNIFICANT WEATHER AND/OR OBSTRUCTIONS TO VISIBILITY.

COZ001>005-013-030-031-010700-
...NORTHWEST COLORADO...

CITY           SKY/WX    TMP DP  RH WIND       PRES   REMARKS
CRAIG          CLEAR     52  44  74 CALM      30.19R
HAYDEN         PTCLDY    52  41  66 CALM      30.22R
MEEKER         MOCLDY    56  46  69 SE5       30.23R
MOUNT WERNER   NOT AVBL
STEAMBOAT SPGS CLEAR     51  40  65 CALM      30.23S
WALDEN         CLEAR     41  32  70 E8        30.31R
$$

COZ006>008-011-010700-
...WEST CENTRAL VALLEYS...

CITY           SKY/WX    TMP DP  RH WIND       PRES   REMARKS
GRAND JUNCTION PTCLDY    69  42  37 S7        30.07F
MONTROSE       PTCLDY    61  43  51 SE9       30.17F
EAGLE          PTCLDY    64  52  63 CALM      30.27R
RIFLE          MOCLDY    61  50  67 SE3       30.16S
DELTA          PTCLDY    63  46  52 NE8       30.13S
NUCLA          PTCLDY    68  37  32 E12       30.17F
$$

COZ017>023-064>068-010700-
...SOUTHWEST COLORADO...

CITY           SKY/WX    TMP DP  RH WIND       PRES   REMARKS
DURANGO        CLEAR     54  42  64 CALM      30.22F
CORTEZ         CLEAR     55  41  59 NE3       30.15R
PAGOSA SPRINGS CLEAR     54  37  51 CALM      30.31S
TELLURIDE      PTCLDY    51  37  57 SE6       30.41S
WOLF CREEK PAS NOT AVBL
$$

COZ009-010-012-014-032>034-037-058>063-010700-
...CENTRAL COLORADO...

CITY           SKY/WX    TMP DP  RH WIND       PRES   REMARKS
ASPEN          PTCLDY    51  38  60 SW6       30.31F
BUENA VISTA    PTCLDY    53  37  55 W7        30.33F
COPPER MTN     MOCLDY    46  28  49 W7G18     30.58S
BERTHOUD PASS  FAIR      37  32  81 W21       30.60S
COTTONWOOD PAS NOT AVBL
GUNNISON       PTCLDY    52  39  62 CALM      30.36S
KREMMLING      CLEAR     50  41  71 CALM      30.31S
LEADVILLE      PTCLDY    39  34  82 NE3       30.45S
MONARCH PASS   MOCLDY    43  32  65 W10       30.69S
SALIDA         PTCLDY    57  40  53 SW8       30.38F
SUNLIGHT       CLOUDY    50  34  53 CALM      30.53S
WILKERSON PASS PTCLDY    46  30  53 N6        30.56F
$$

COZ069>075-010700-
...SAN LUIS VALLEY/SANGRE DE CRISTO MOUNTAINS...

CITY           SKY/WX    TMP DP  RH WIND       PRES   REMARKS
ALAMOSA        MOCLDY    54  42  64 W5        30.30F
LA VETA PASS   PTCLDY   N/A N/A N/A MISG      30.47F
SAGUACHE       CLOUDY    55  39  54 NW14      30.33F
$$

COZ035-036-038>040-010700-
...NORTHERN COLORADO FRONT RANGE...

CITY           SKY/WX    TMP DP  RH WIND       PRES   REMARKS
DENVER INTL AP MOCLDY    58  50  75 S14       30.12F
DMNS CITY PARK   N/A     63  49  60 S5G10     30.12F
AURORA         MOCLDY    59  50  71 S13       30.14F
FRONT RANGE AP MOCLDY    63  50  63 MISG      30.13F
ERIE MUNI ARPT PTCLDY    57  53  85 S3        30.12F
BOULDER MUN AP PTCLDY    63  46  55 S5        30.12F
CENTENNIAL     PTCLDY    60  49  66 S13       30.16F
BROOMFIELD     PTCLDY    59  52  77 W5        30.15F
FORT COLLINS   PTCLDY    59  52  77 S5        30.12S
LONGMONT       PTCLDY    59  53  81 CALM      30.13F
$$

COZ041-046-047-076>085-087-088-010700-
...PIKES PEAK/PALMER DIVIDE AND SOUTHERN FOOTHILLS...

CITY           SKY/WX    TMP DP  RH WIND       PRES   REMARKS
COLO. SPRINGS  PTCLDY    55  48  77 NE12      30.20F
A. F. ACADEMY  PTCLDY    51  47  89 N3        30.21F
ELLICOTT         N/A      1  32 100 N3        30.20R
FALCON         PTCLDY    53  46  75 CALM      30.25S
FORT CARSON    NOT AVBL
LIMON          MOCLDY    56  52  86 W5        30.15S
MONUMENT HILL  PTCLDY    52  45  76 MISG      30.26S
TRINIDAD       CLEAR     57  51  80 W13       30.19R
$$

COZ042>045-048>051-090-091-010700-
...NORTHEAST COLORADO...

CITY           SKY/WX    TMP DP  RH WIND       PRES   REMARKS
GREELEY ARPT   CLEAR     57  55  94 NE3       30.10S
AKRON          PTCLDY    59  54  83 SW6       30.08F
BURLINGTON     MOCLDY    59  52  77 W10       30.07R
WRAY           PTCLDY    60  60  97 CALM      30.04S
STERLING       PTCLDY    59  55  88 W3        30.04F
HOLYOKE        PTCLDY    61  57  88 SE5       30.05S
FORT MORGAN    PTCLDY    58  -4   7 N6        30.09R
$$

COZ086-089-092>099-010700-
...SOUTHEAST COLORADO...

CITY           SKY/WX    TMP DP  RH WIND       PRES   REMARKS
PUEBLO         CLEAR     58  52  80 E7        30.10R
LA JUNTA       PTCLDY    65  51  60 SW9       30.08R
LAMAR          CLOUDY    65  54  67 SW12      30.04R
SPRINGFIELD      N/A     60  55  83 SW6       30.11F
$$


USA.gov is the U.S. government's official web portal to all federal, state and local government web resources and services.